GW6002 Weather Reports


time (UTC)temp
F
wind
direction
speed
knots
gust
knots
rain 1hr
in
rain 24hr
in
rain mn
in
humidity
%
barometer
mb
20260506122940 68 157 5.2 7.8 0.00 0.00 0.00 57 1005.6
20260506122437 67 101 5.2 7.0 0.00 0.00 0.00 58 1005.6
20260506121935 67 83 0.9 6.1 0.00 0.00 0.00 58 1005.7
20260506121432 67 77 7.8 12.2 0.00 0.00 0.00 57 1005.8
20260506120929 67 114 4.3 6.1 0.00 0.00 0.00 56 1005.8
20260506120426 68 113 0.9 8.7 0.00 0.00 0.00 57 1005.9
20260506115923 67 55 2.6 5.2 0.00 0.00 0.00 56 1005.9
20260506115421 67 136 5.2 7.8 0.00 0.00 0.00 57 1005.9
20260506114919 68 144 4.3 7.8 0.00 0.00 0.00 55 1006.0
20260506114416 68 91 0.0 3.5 0.00 0.00 0.00 56 1006.0
20260506113915 68 221 1.7 12.2 0.00 0.00 0.00 55 1005.7
20260506113412 67 115 2.6 7.8 0.00 0.00 0.00 57 1005.8
20260506112909 67 92 13.0 14.8 0.00 0.00 0.00 55 1005.9
20260506112407 66 49 1.7 7.8 0.00 0.00 0.00 57 1006.1
20260506111904 66 77 3.5 11.3 0.00 0.00 0.00 58 1006.1
20260506111402 66 84 0.9 7.8 0.00 0.00 0.00 56 1006.2
20260506110858 66 94 1.7 6.1 0.00 0.00 0.00 57 1006.5
20260506110356 66 111 5.2 8.7 0.00 0.00 0.00 57 1006.3
20260506105852 66 86 0.9 11.3 0.00 0.00 0.00 57 1006.5
20260506105349 65 116 1.7 6.1 0.00 0.00 0.00 57 1006.5
20260506104847 65 113 5.2 12.2 0.00 0.00 0.00 58 1006.4
20260506104344 65 146 3.5 7.8 0.00 0.00 0.00 57 1006.4
20260506103842 64 88 5.2 7.0 0.00 0.00 0.00 57 1006.5
20260506103339 64 75 5.2 11.3 0.00 0.00 0.00 58 1006.4
20260506102836 64 92 2.6 5.2 0.00 0.00 0.00 57 1006.8
20260506102334 64 75 5.2 7.0 0.00 0.00 0.00 58 1006.6
20260506101831 64 96 9.6 13.9 0.00 0.00 0.00 58 1006.6
20260506101327 63 46 6.1 7.8 0.00 0.00 0.00 57 1006.9
20260506100825 63 106 4.3 7.8 0.00 0.00 0.00 58 1006.8
20260506100323 64 104 6.1 12.2 0.00 0.00 0.00 57 1006.8
20260506095821 63 41 2.6 3.5 0.00 0.00 0.00 58 1006.8
20260506095318 62 90 1.7 6.1 0.00 0.00 0.00 59 1006.9
20260506094815 62 72 5.2 7.8 0.00 0.00 0.00 59 1006.9
20260506094314 62 71 0.9 6.1 0.00 0.00 0.00 60 1006.8
20260506093811 62 116 7.0 9.6 0.00 0.00 0.00 59 1006.7
20260506093308 62 73 8.7 11.3 0.00 0.00 0.00 59 1007.0
20260506092806 62 146 7.0 9.6 0.00 0.00 0.00 59 1007.2
20260506092306 62 113 5.2 8.7 0.00 0.00 0.00 59 1006.9
20260506091801 61 125 9.6 14.8 0.00 0.00 0.00 60 1006.6
20260506091258 62 41 3.5 16.5 0.00 0.00 0.00 61 1006.7
20260506090756 61 138 7.0 8.7 0.00 0.00 0.00 60 1006.7
20260506090253 60 34 8.7 12.2 0.00 0.00 0.00 61 1006.6
20260506085749 60 31 2.6 11.3 0.00 0.00 0.00 62 1006.8
20260506085246 61 59 11.3 15.6 0.00 0.00 0.00 61 1006.6
20260506084742 60 28 9.6 12.2 0.00 0.00 0.00 63 1006.5
20260506084238 60 78 4.3 9.6 0.00 0.00 0.00 62 1006.8
20260506083736 59 60 1.7 7.0 0.00 0.00 0.00 64 1006.6
20260506083233 59 48 6.1 11.3 0.00 0.00 0.00 62 1006.8
20260506082731 60 40 7.8 12.2 0.00 0.00 0.00 63 1007.1
20260506082226 59 35 7.0 12.2 0.00 0.00 0.00 64 1007.1
20260506081724 60 98 5.2 13.0 0.00 0.00 0.00 63 1006.9
20260506081221 59 93 4.3 7.0 0.00 0.00 0.00 64 1007.1
20260506080719 59 39 1.7 7.0 0.00 0.00 0.00 65 1007.1
20260506080215 59 91 2.6 5.2 0.00 0.00 0.00 66 1007.1
20260506073159 57 94 3.5 9.6 0.00 0.00 0.00 69 1007.3
20260506072656 57 70 4.3 13.0 0.00 0.00 0.00 70 1007.3
20260506072154 56 27 10.4 13.9 0.00 0.00 0.00 71 1007.5
20260506071651 56 47 7.8 8.7 0.00 0.00 0.00 71 1007.5
20260506071148 56 38 5.2 13.0 0.00 0.00 0.00 72 1007.4
20260506070645 56 44 2.6 7.0 0.00 0.00 0.00 72 1007.3
20260506070142 55 52 4.3 9.6 0.00 0.00 0.00 72 1007.5
20260506062120 54 43 4.3 8.7 0.00 0.00 0.00 76 1007.7
20260506061615 54 43 7.0 11.3 0.00 0.00 0.00 78 1007.4
20260506061113 54 99 0.9 6.1 0.00 0.00 0.00 77 1007.6
20260506060612 53 37 8.7 12.2 0.00 0.00 0.00 78 1007.6
20260506060108 53 37 7.0 8.7 0.00 0.00 0.00 78 1007.6
20260506051040 51 39 7.0 7.8 0.00 0.00 0.00 81 1008.0
20260506050538 51 48 3.5 6.1 0.00 0.00 0.00 81 1008.1
20260506045029 51 51 5.2 7.8 0.00 0.00 0.00 81 1007.9
20260506044526 51 42 2.6 11.3 0.00 0.00 0.00 82 1007.9
20260506044023 51 28 9.6 12.2 0.00 0.00 0.00 81 1007.8
20260506043520 51 77 5.2 14.8 0.00 0.00 0.00 82 1007.9
20260506043019 51 32 7.8 12.2 0.00 0.00 0.00 82 1007.9
20260506042517 51 33 7.0 7.8 0.00 0.00 0.00 82 1008.0
20260506042015 51 32 7.0 8.7 0.00 0.00 0.00 81 1008.0
20260506041513 51 31 7.8 8.7 0.00 0.00 0.00 81 1007.9
20260506041010 50 54 3.5 5.2 0.00 0.00 0.00 82 1007.9
20260506040508 50 40 1.7 6.1 0.00 0.00 0.00 83 1008.1
20260506040003 50 44 0.9 6.1 0.00 0.00 0.00 84 1008.0
20260506035500 50 43 2.6 6.1 0.00 0.00 0.00 83 1008.2
20260506034957 50 47 2.6 6.1 0.00 0.00 0.00 83 1008.2
20260506034455 49 36 5.2 7.8 0.00 0.00 0.00 84 1008.0
20260506033951 49 45 5.2 8.7 0.00 0.00 0.00 84 1008.0
20260506033449 49 46 1.7 7.0 0.00 0.00 0.00 85 1008.0
20260506032945 49 41 3.5 7.0 0.00 0.00 0.00 85 1008.2
20260506032443 49 44 1.7 7.8 0.00 0.00 0.00 84 1008.1
20260506031939 49 36 5.2 7.0 0.00 0.00 0.00 84 1008.1
20260506031436 49 37 4.3 7.8 0.00 0.00 0.00 85 1007.9
20260506030934 49 28 6.1 9.6 0.00 0.00 0.00 85 1007.9
20260506030432 49 43 3.5 5.2 0.00 0.00 0.00 85 1007.9
20260506025928 49 31 7.0 7.8 0.00 0.00 0.00 85 1008.1
20260506025425 49 40 4.3 8.7 0.00 0.00 0.00 86 1007.7
20260506024922 49 29 5.2 7.8 0.00 0.00 0.00 86 1007.9
20260506024419 49 33 5.2 8.7 0.00 0.00 0.00 86 1007.9
20260506023915 49 29 7.0 7.8 0.00 0.00 0.00 86 1007.8
20260506023412 49 31 7.0 7.0 0.00 0.00 0.00 86 1007.9
20260506022908 49 29 5.2 7.0 0.00 0.00 0.00 86 1007.8
20260506022407 49 27 5.2 7.8 0.00 0.00 0.00 85 1007.6
20260506021904 49 29 7.0 7.8 0.00 0.00 0.00 85 1007.8
20260506021401 49 39 2.6 7.8 0.00 0.00 0.00 85 1007.5
20260506020858 49 62 1.7 2.6 0.00 0.00 0.00 85 1007.7
20260506020356 49 42 2.6 6.1 0.00 0.00 0.00 85 1007.7
20260506015853 50 43 4.3 8.7 0.00 0.00 0.00 84 1007.4
20260506015350 50 36 3.5 7.8 0.00 0.00 0.00 85 1007.5
20260506014847 50 33 4.3 6.1 0.00 0.00 0.00 85 1007.5
20260506014344 50 42 5.2 7.8 0.00 0.00 0.00 85 1007.6
20260506013840 50 29 7.8 11.3 0.00 0.00 0.00 85 1007.5
20260506013338 50 27 7.8 9.6 0.00 0.00 0.00 85 1007.7
20260506012834 50 40 7.0 11.3 0.00 0.00 0.00 85 1007.6
20260506012332 50 24 6.1 9.6 0.00 0.00 0.00 85 1007.5
20260506011829 50 20 7.0 9.6 0.00 0.00 0.00 84 1007.5
20260506011325 51 9 10.4 12.2 0.00 0.00 0.00 83 1007.6
20260506010823 51 7 7.8 11.3 0.00 0.00 0.00 83 1007.6
20260506010320 51 356 6.1 8.7 0.00 0.00 0.00 83 1007.5
20260506005817 51 17 7.0 9.6 0.00 0.00 0.00 83 1007.6
20260506005314 51 3 5.2 8.7 0.00 0.00 0.00 82 1007.3
20260506004810 51 5 7.8 8.7 0.00 0.00 0.00 82 1007.5
20260506004308 51 355 5.2 7.8 0.00 0.00 0.00 82 1007.6
20260506003803 51 16 4.3 5.2 0.00 0.00 0.00 82 1007.3
20260506003300 51 12 3.5 5.2 0.00 0.00 0.00 82 1007.4
20260506002756 51 359 4.3 6.1 0.00 0.00 0.00 81 1007.4
20260506002253 51 6 4.3 5.2 0.00 0.00 0.00 81 1007.3
20260506001748 51 23 5.2 6.1 0.00 0.00 0.00 81 1007.0
20260506001246 52 28 5.2 6.1 0.00 0.00 0.00 81 1006.9
20260506000743 51 53 0.9 2.6 0.00 0.00 0.00 81 1006.9
20260506000240 52 38 1.7 5.2 0.00 0.00 0.00 81 1007.2
20260505235737 52 16 3.5 3.5 0.00 0.00 0.00 81 1007.4
20260505235235 52 22 4.3 5.2 0.00 0.00 0.00 80 1007.2
20260505234732 52 14 5.2 6.1 0.00 0.00 0.00 80 1007.3
20260505234229 52 7 3.5 3.5 0.00 0.00 0.00 80 1007.5
20260505233726 52 12 4.3 6.1 0.00 0.00 0.00 79 1007.3
20260505233224 52 32 4.3 7.8 0.00 0.00 0.00 79 1007.2
20260505232720 52 39 3.5 6.1 0.00 0.00 0.00 80 1007.1
20260505232218 52 54 1.7 5.2 0.00 0.00 0.00 82 1007.2
20260505231715 53 23 6.1 7.0 0.00 0.00 0.00 80 1007.6
20260505231214 53 359 4.3 6.1 0.00 0.00 0.00 80 1007.7
20260505230711 53 345 4.3 7.0 0.00 0.00 0.00 80 1007.5
20260505230208 53 356 4.3 5.2 0.00 0.00 0.00 80 1007.5
20260505225704 53 8 3.5 3.5 0.00 0.00 0.00 79 1007.2
20260505225201 53 351 3.5 5.2 0.00 0.00 0.00 80 1007.4
20260505224656 53 3 3.5 3.5 0.00 0.00 0.00 80 1007.3
20260505224154 53 18 3.5 5.2 0.00 0.00 0.00 80 1007.2
20260505223652 53 17 3.5 3.5 0.00 0.00 0.00 81 1007.0
20260505223147 53 4 4.3 5.2 0.00 0.00 0.00 81 1007.0
20260505222643 53 18 3.5 5.2 0.00 0.00 0.00 80 1007.1
20260505222140 53 18 3.5 6.1 0.00 0.00 0.00 81 1006.9
20260505221638 53 35 5.2 6.1 0.00 0.00 0.00 81 1006.9
20260505221134 53 22 5.2 6.1 0.00 0.00 0.00 80 1007.0
20260505220632 53 12 5.2 7.8 0.00 0.00 0.00 80 1007.2
20260505220129 54 10 6.1 6.1 0.00 0.00 0.00 80 1007.2
20260505215626 54 0 5.2 6.1 0.00 0.00 0.00 80 1007.2
20260505215125 53 352 5.2 6.1 0.00 0.00 0.00 81 1007.1
20260505214622 54 4 5.2 7.0 0.00 0.00 0.00 81 1006.9
20260505214119 54 9 5.2 7.0 0.00 0.00 0.00 81 1007.0
20260505213617 54 13 5.2 7.0 0.00 0.00 0.00 81 1007.1
20260505213113 54 20 7.8 7.8 0.00 0.00 0.00 81 1006.8
20260505212609 54 3 5.2 6.1 0.00 0.00 0.00 82 1007.2
20260505212107 54 21 6.1 7.8 0.00 0.00 0.00 81 1006.7
20260505211604 54 15 5.2 7.0 0.00 0.00 0.00 81 1007.0
20260505211101 55 13 6.1 7.8 0.00 0.00 0.00 81 1007.2
20260505210557 55 3 7.0 8.7 0.00 0.00 0.00 82 1006.9
20260505210055 55 355 6.1 6.1 0.00 0.00 0.00 82 1007.1
20260505205552 55 8 6.1 11.3 0.00 0.06 0.06 84 1006.9
20260505205050 55 341 7.0 7.0 0.00 0.06 0.06 85 1007.1
20260505204547 55 347 7.0 7.0 0.00 0.06 0.06 85 1007.1
20260505204044 56 8 7.8 8.7 0.00 0.06 0.06 86 1007.0
20260505203540 56 341 5.2 7.0 0.00 0.06 0.06 86 1007.1
20260505203038 56 325 6.1 9.6 0.00 0.06 0.06 85 1006.7
20260505202534 56 322 5.2 6.1 0.00 0.06 0.06 86 1006.7
20260505202030 56 19 3.5 5.2 0.00 0.06 0.06 84 1006.1
20260505201527 57 39 1.7 5.2 0.00 0.06 0.06 84 1005.9
20260505201024 57 55 0.9 2.6 0.00 0.06 0.06 84 1006.0
20260505200522 57 52 1.7 5.2 0.00 0.06 0.06 85 1006.0
20260505200019 57 37 3.5 7.0 0.00 0.06 0.06 85 1005.8
20260505195515 57 28 7.0 11.3 0.00 0.06 0.06 85 1005.8
20260505195012 57 28 7.8 9.6 0.00 0.06 0.06 85 1006.1
20260505194510 58 13 7.0 11.3 0.00 0.06 0.06 86 1006.1
20260505194010 58 19 8.7 11.3 0.00 0.06 0.06 91 1006.1
20260505193508 58 22 7.8 8.7 0.00 0.06 0.06 91 1006.6
20260505193004 58 22 5.2 7.0 0.00 0.06 0.06 91 1006.6
20260505192503 58 285 6.1 7.8 0.00 0.06 0.06 94 1007.5
20260505192000 57 272 9.6 12.2 0.00 0.06 0.06 94 1007.7
20260505191458 57 323 3.5 3.5 0.00 0.06 0.06 94 1006.3
20260505190955 58 92 0.0 1.7 0.00 0.06 0.06 93 1005.9
20260505190450 58 92 1.7 2.6 0.00 0.06 0.06 93 1006.0
20260505185946 58 127 0.0 0.0 0.00 0.06 0.06 93 1006.0
20260505185444 58 127 0.0 0.0 0.00 0.06 0.06 93 1006.1
20260505184939 58 126 0.9 1.7 0.00 0.06 0.06 94 1006.2
20260505184437 58 155 1.7 1.7 0.00 0.06 0.06 94 1006.4
20260505183933 59 184 0.9 1.7 0.00 0.06 0.06 93 1006.2
20260505183430 59 145 1.7 1.7 0.00 0.06 0.06 93 1006.4
20260505182927 59 145 1.7 2.6 0.00 0.06 0.06 93 1006.4
20260505182424 59 145 0.9 1.7 0.00 0.06 0.06 93 1006.4
20260505181920 58 60 0.0 0.0 0.00 0.06 0.06 92 1006.7
20260505181417 58 60 0.9 0.9 0.00 0.06 0.06 92 1006.5
20260505180914 58 58 0.0 0.9 0.00 0.06 0.06 91 1006.4
20260505180411 59 58 3.5 3.5 0.00 0.06 0.06 90 1006.1
20260505175907 59 59 0.0 0.0 0.00 0.06 0.06 91 1006.3
20260505175403 59 59 0.0 0.0 0.00 0.06 0.06 91 1006.2
20260505174900 59 59 0.9 1.7 0.05 0.06 0.06 91 1006.2
20260505174358 59 59 0.0 0.0 0.05 0.06 0.06 90 1006.3
20260505173854 59 58 0.0 0.0 0.00 0.05 0.05 90 1006.5
20260505173350 59 58 0.0 0.0 0.00 0.05 0.05 89 1006.5
20260505172847 59 58 0.0 0.9 0.00 0.05 0.05 88 1006.4
20260505172345 59 57 0.0 0.9 0.00 0.05 0.05 88 1006.2
20260505171844 60 59 0.9 2.6 0.00 0.05 0.05 88 1006.7
20260505171341 60 92 0.0 0.0 0.00 0.05 0.05 88 1006.6
20260505170838 60 149 0.9 1.7 0.00 0.05 0.05 86 1006.6
20260505170335 61 191 0.0 0.0 0.00 0.05 0.05 85 1007.0
20260505165830 61 191 0.0 1.7 0.00 0.05 0.05 85 1006.8
20260505165326 61 191 0.9 1.7 0.00 0.05 0.05 85 1007.0
20260505164822 61 172 0.9 1.7 0.00 0.05 0.05 86 1006.7
20260505164319 61 139 0.0 0.0 0.00 0.05 0.05 85 1006.8
20260505163817 61 139 0.0 0.9 0.00 0.05 0.05 83 1006.6
20260505163316 62 139 0.0 0.0 0.00 0.05 0.05 81 1006.8
20260505162814 62 139 0.0 0.9 0.00 0.05 0.05 81 1006.7
20260505162309 62 139 0.9 1.7 0.00 0.05 0.05 75 1006.8
20260505161807 62 359 0.0 0.0 0.00 0.05 0.05 74 1006.7
20260505161304 62 359 0.9 1.7 0.00 0.05 0.05 73 1006.5
20260505160801 63 347 2.6 2.6 0.00 0.05 0.05 73 1006.7
20260505160259 63 345 3.5 5.2 0.00 0.05 0.05 73 1006.7
20260505153238 61 3 5.2 5.2 0.00 0.05 0.05 80 1006.6
20260505152735 61 41 1.7 2.6 0.00 0.05 0.05 82 1006.4
20260505152231 60 42 2.6 2.6 0.00 0.05 0.05 82 1007.0
20260505151726 61 89 0.0 2.6 0.00 0.05 0.05 82 1006.5
20260505151223 62 30 0.0 1.7 0.12 0.05 0.05 76 1006.7
20260505150720 63 340 2.6 5.2 0.17 0.04 0.04 70 1007.1
20260505150217 64 290 7.0 9.6 0.12 0.02 0.02 66 1007.0
20260505140645 69 328 5.2 7.0 0.00 0.00 0.00 51 1006.9
20260505140142 69 320 6.1 8.7 0.00 0.00 0.00 51 1007.1
20260505130106 70 307 5.2 7.8 0.00 0.00 0.00 47 1007.4
20260505124555 71 265 8.7 9.6 0.00 0.00 0.00 46 1007.8
20260505124051 71 305 7.8 8.7 0.00 0.00 0.00 47 1007.9
20260505123548 70 249 1.7 3.5 0.00 0.00 0.00 47 1007.8